Hourly Data Report for August 05, 2015

All times are specified in Local Standard Time (LST). Add 1 hour to adjust for Daylight Saving Time where and when it is observed.

TORONTO INTL A
ONTARIO

43°40'36.000" N
79°37'50.000" W
173.40 m
6158731
71624
YYZ

Download Data

Hourly Data (August 2015)
Hourly Data Report for August 5, 2015
Temp Definition
°C
Dew Point Temp Definition
°C
Rel Hum Definition
%
Wind Dir Definition
10's deg

Wind Spd Definition
km/h
Visibility Definition
km
Stn Press Definition
kPa
Hmdx Definition


Wind Chill Definition


Weather Definition


TIME
00:00 Legend Double Dagger 17.4 11.7 69 31 22 24.1 99.36     LegendNANA
01:00 Legend Double Dagger 17.1 11.0 67 32 20 24.1 99.34     Mostly Cloudy
02:00 Legend Double Dagger 16.3 10.9 70 31 18 24.1 99.33     LegendNANA
03:00 Legend Double Dagger 15.4 10.8 74 29 13 24.1 99.31     LegendNANA
04:00 Legend Double Dagger 14.9 11.0 77 28 13 24.1 99.33     Clear
05:00 Legend Double Dagger 14.2 10.7 79 28 13 24.1 99.33     LegendNANA
06:00 Legend Double Dagger 14.9 10.4 74 27 12 24.1 99.38     LegendNANA
07:00 Legend Double Dagger 17.4 10.1 62 30 16 24.1 99.41     Mainly Clear
08:00 Legend Double Dagger 18.3 10.0 58 32 28 24.1 99.42     LegendNANA
09:00 Legend Double Dagger 19.2 10.1 55 31 23 24.1 99.44     LegendNANA
10:00 Legend Double Dagger 20.6 10.0 50 32 20 24.1 99.45     Mostly Cloudy
11:00 Legend Double Dagger 20.4 9.5 49 32 24 24.1 99.49     LegendNANA
12:00 Legend Double Dagger 21.5 10.8 50 30 25 24.1 99.49     LegendNANA
13:00 Legend Double Dagger 21.6 10.0 47 29 17 24.1 99.46     Mostly Cloudy
14:00 Legend Double Dagger 23.5 10.0 42 30 24 24.1 99.42 25   LegendNANA
15:00 Legend Double Dagger 24.3 10.4 41 28 26 24.1 99.40 26   LegendNANA
16:00 Legend Double Dagger 24.3 10.4 41 29 30 24.1 99.41 26   Mostly Cloudy
17:00 Legend Double Dagger 22.4 9.0 42 31 28 24.1 99.44     LegendNANA
18:00 Legend Double Dagger 21.9 8.9 43 29 27 24.1 99.46     LegendNANA
19:00 Legend Double Dagger 20.0 11.6 58 33 24 24.1 99.51     Mainly Clear
20:00 Legend Double Dagger 18.3 11.5 64 36 18 24.1 99.54     LegendNANA
21:00 Legend Double Dagger 18.0 10.9 63 31 16 24.1 99.60     LegendNANA
22:00
23:00 Legend Double Dagger 15.9 10.7 71 32 18 24.1 99.62     LegendNANA

Notes on Data Quality.

Legend

  • E = Estimated
  • M = Missing
  • NA = Not Available
  • ‡ = Partner data that is not subject to review by the National Climate Archives
Date modified: